Home   Weather   Tashkent   Past weeks
Flag for Uzbekistan

Past Weather in Tashkent, Uzbekistan — Yesterday and Last 2 Weeks

Now
34 °F

Fog.


Feels Like: 28 °F
Forecast: 42 / 27 °F
Wind: 7 mph from Northeast

Location: Tashkent

Current Time: Jan 22, 2019 at 10:21:50 pm

Latest Report: Jan 22, 2019 at 9:30 pm


Visibility: 2 mi

Pressure: 30.15 "Hg

Humidity: 75%

Dew Point: 27 °F

Location of TashkentLocation

Past Weather in Tashkent — Graph

°F

Tashkent Temperature Yesterday

Maximum temperature yesterday: 43 °F (at 1:30 pm)
Minimum temperature yesterday: 32 °F (at 8:30 pm)
Average temperature yesterday: 37 °F

High & Low Weather Summary for the Past Weeks

 TemperatureHumidityPressure
High63 °F (Jan 15, 12:00 am)100% (Jan 12, 12:00 am)30.45 "Hg (Jan 12, 12:00 am)
Low28 °F (Jan 13, 4:30 am)20% (Jan 14, 1:30 pm)29.71 "Hg (Jan 18, 6:00 am)
Average42 °F69%30.09 "Hg
* Reported Jan 7 9:00 pm — Jan 22 9:00 pm, Tashkent. Weather by CustomWeather, © 2019

Note: Actual official high and low records may vary slightly from our data, if they occured in-between our weather recording intervals... More about our weather records

Advertising

Tashkent Weather History for the Previous 24 Hours

Scroll right to see more
 ConditionsComfort  
Time TempWeatherWind HumidityBarometerVisibility
9:00 pm
Tue, Jan 22
36 °FFog.7 mph75%30.15 "Hg2 mi
8:30 pm36 °FClear.7 mph75%30.15 "Hg10 mi
8:00 pm37 °FClear.7 mph70%30.15 "Hg10 mi
7:30 pm37 °FClear.7 mph70%30.15 "Hg10 mi
7:00 pm37 °FClear.2 mph65%30.15 "Hg10 mi
6:30 pm36 °FClear.5 mph60%30.15 "Hg10 mi
6:00 pm37 °FClear.5 mph56%30.12 "Hg10 mi
5:30 pm41 °FClear.7 mph45%30.12 "Hg10 mi
5:00 pm41 °FSunny.7 mph45%30.12 "Hg10 mi
4:30 pm43 °FSunny.7 mph39%30.12 "Hg10 mi
4:00 pm43 °FPassing clouds.7 mph39%30.12 "HgN/A
3:30 pm43 °FPassing clouds.7 mph42%30.12 "HgN/A
3:00 pm43 °FSunny.5 mph36%30.12 "Hg10 mi
2:30 pm43 °FSunny.2 mph39%30.12 "Hg10 mi
2:00 pm43 °FSunny.2 mph39%30.12 "Hg10 mi
1:30 pm43 °FPassing clouds.5 mph46%30.12 "HgN/A
1:00 pm43 °FPassing clouds.5 mph46%30.15 "HgN/A
12:30 pm41 °FClear.5 mph53%30.15 "Hg4 mi
12:00 pm39 °FClear.5 mph61%30.15 "Hg4 mi
11:30 am37 °FClear.2 mph56%30.18 "Hg4 mi
11:00 am36 °FClear.5 mph60%30.18 "Hg4 mi
10:30 am36 °FClear.2 mph60%30.18 "Hg4 mi
10:00 am34 °FClear.7 mph65%30.21 "Hg4 mi
9:30 am32 °FClear.5 mph75%30.21 "Hg4 mi
9:00 am30 °FClear.2 mph80%30.21 "Hg4 mi
8:30 am30 °FClear.2 mph75%30.21 "Hg4 mi
8:00 am28 °FClear.2 mph80%30.21 "Hg4 mi
7:30 am28 °FClear.2 mph80%30.21 "Hg10 mi
7:00 am28 °FClear.5 mph86%30.21 "Hg10 mi
6:30 am28 °FClear.No wind86%30.21 "Hg10 mi
6:00 am28 °FClear.2 mph86%30.21 "Hg10 mi
5:30 am28 °FClear.No wind86%30.21 "Hg10 mi
5:00 am30 °FClear.No wind86%30.21 "Hg10 mi
4:30 am28 °FClear.No wind86%30.21 "Hg10 mi
4:00 am28 °FClear.5 mph86%30.24 "Hg10 mi
3:30 am30 °FClear.No wind80%30.24 "Hg10 mi
3:00 am30 °FClear.2 mph86%30.24 "Hg10 mi
2:30 am30 °FPassing clouds.5 mph80%30.24 "HgN/A
1:30 am30 °FPassing clouds.5 mph80%30.27 "HgN/A
1:00 am34 °FClear.5 mph70%30.27 "Hg10 mi
12:30 am32 °FClear.7 mph80%30.30 "Hg10 mi
12:00 am32 °FPassing clouds.5 mph75%30.30 "HgN/A
11:30 pm
Mon, Jan 21
32 °FClear.9 mph75%30.33 "Hg10 mi
11:00 pm34 °FClear.7 mph75%30.33 "Hg10 mi
10:30 pm32 °FClear.7 mph80%30.33 "Hg10 mi
10:00 pm34 °FClear.5 mph75%30.33 "Hg10 mi
Weather by CustomWeather, © 2019

See weather overview